Aswan, Egypt

3:01 AM EET on September 23, 2017 (GMT +0200)
Aswan

Weather History for HESN - October, 2012

Change the Weather History Date:

Thursday, October 11, 2012

  Actual Average Record
Temperature  
Mean Temperature 84 °F -  
Max Temperature 97 °F 89 °F 105 °F (1996)
Min Temperature 71 °F 67 °F 68 °F (2004)
Cooling Degree Days 19    
Growing Degree Days 34 (Base 50)    
Moisture  
Dew Point 46 °F    
Average Humidity 25    
Maximum Humidity 36    
Minimum Humidity 13    
Precipitation  
Precipitation 0.00 in 0.00 in - ()
Sea Level Pressure  
Sea Level Pressure 29.86 in    
Wind  
Wind Speed 7 mph ()    
Max Wind Speed 14 mph    
Max Gust Speed -    
Visibility 6.0 miles    
Events      
Averages and records for this station are not official NWS values.
T = Trace of Precipitation, MM = Missing Value Source: Averaged Metar Reports

Daily Weather History Graph

Daily Weather History Graph

Search for Another Location

Airport or City:

Trip Planner

Search our weather history database for the weather conditions in past years. The results will help you decide how hot, cold, wet, or windy it might be!

Date:

Astronomy

Oct. 11, 2012 Rise Set
Actual Time 5:44 AM EET 5:26 PM EET
Civil Twilight 5:21 AM EET 5:48 PM EET
Nautical Twilight 4:55 AM EET 6:15 PM EET
Astronomical Twilight 4:29 AM EET 6:41 PM EET
Moon 1:29 AM EET (10/11) 2:27 PM EET (10/11)
Length of Visible Light 12h 26m
Length of Day
11h 41m
Waning Crescent, 20% of the Moon is Illuminated
Oct 11
Waning Crescent
Oct 15
New
Oct 22
First Quarter
Oct 29
Full
Nov 7
Last Quarter

Hourly Weather History & Observations

Time (EET) Temp. Dew Point Humidity Pressure Visibility Wind Dir Wind Speed Gust Speed Precip Events Conditions
12:00 AM 80.6 °F 42.8 °F 26% 29.86 in - North 10.4 mph - N/A   Clear
1:00 AM 78.8 °F 42.8 °F 28% 29.86 in - North 9.2 mph - N/A   Clear
2:00 AM 76 °F 44 °F 21% 29.84 in 6 mi North 5.8 mph - -  
2:00 AM 77.0 °F 42.8 °F 29% 29.86 in - North 5.8 mph - N/A   Clear
3:00 AM 75.2 °F 42.8 °F 31% 29.86 in - North 5.8 mph - N/A   Clear
4:00 AM 73.4 °F 44.6 °F 36% 29.86 in - North 5.8 mph - N/A   Clear
5:00 AM 71.6 °F 42.8 °F 35% 29.86 in - North 8.1 mph - N/A   Clear
6:00 AM 71.6 °F 42.8 °F 35% 29.86 in - North 6.9 mph - N/A   Clear
7:00 AM 73.4 °F 44.6 °F 36% 29.89 in - North 5.8 mph - N/A   Clear
8:00 AM 78 °F 46 °F 21% 29.90 in 6 mi North 8.1 mph - -  
8:00 AM 78.8 °F 46.4 °F 32% 29.92 in - North 8.1 mph - N/A   Clear
9:00 AM 82.4 °F 48.2 °F 30% 29.92 in - North 11.5 mph - N/A   Clear
10:00 AM 87.8 °F 50.0 °F 27% 29.92 in - NNE 10.4 mph - N/A   Clear
11:00 AM 91.4 °F 50.0 °F 24% 29.89 in - NNE 13.8 mph - N/A   Clear
12:00 PM 93.2 °F 50.0 °F 23% 29.86 in - North 11.5 mph - N/A   Clear
1:00 PM 95.0 °F 50.0 °F 22% 29.83 in - North 10.4 mph - N/A   Clear
2:00 PM 96 °F 50 °F 13% 29.80 in 6 mi NNE 11.5 mph - -  
2:00 PM 96.8 °F 50.0 °F 20% 29.83 in - NNE 11.5 mph - N/A   Clear
3:00 PM 96.8 °F 50.0 °F 20% 29.83 in - North 8.1 mph - N/A   Clear
4:00 PM 96.8 °F 50.0 °F 20% 29.80 in - North 8.1 mph - N/A   Clear
5:00 PM 95.0 °F 50.0 °F 22% 29.83 in - North 8.1 mph - N/A   Clear
6:00 PM 93.2 °F 48.2 °F 21% 29.83 in - North 6.9 mph - N/A   Clear
7:00 PM 91.4 °F 48.2 °F 23% 29.86 in - North 6.9 mph - N/A   Clear
8:00 PM 89 °F 47 °F 14% 29.84 in 6 mi North 5.8 mph - -  
8:00 PM 87.8 °F 46.4 °F 24% 29.86 in - North 5.8 mph - N/A   Clear
9:00 PM 86.0 °F 46.4 °F 25% 29.86 in - North 6.9 mph - N/A   Clear
10:00 PM 84.2 °F 42.8 °F 23% 29.89 in - North 8.1 mph - N/A   Clear
11:00 PM 82.4 °F 41.0 °F 23% 29.89 in - North 8.1 mph - N/A   Clear